GW0139 Weather Reports


time (UTC)temp
C
wind
direction
speed
KPH
gust
KPH
rain 1hr
cm
rain 24hr
cm
rain mn
cm
humidity
%
barometer
mb
20260510104120 23 173 3.2 3.2 0.00 0.00 0.00 99 1009.3
20260510103617 23 183 1.6 1.6 0.00 0.00 0.00 99 1009.3
20260510103113 23 172 1.6 3.2 0.00 0.00 0.00 99 1009.4
20260510102609 23 180 3.2 4.8 0.00 0.00 0.00 99 1009.2
20260510102105 23 207 3.2 4.8 0.00 0.00 0.00 99 1009.2
20260510101603 23 177 0.0 1.6 0.00 0.00 0.00 99 1009.0
20260510101101 23 172 1.6 1.6 0.00 0.00 0.00 99 1009.1
20260510100556 23 169 0.0 1.6 0.00 0.00 0.00 99 1009.2
20260510100054 23 176 1.6 1.6 0.00 0.00 0.00 99 1009.3
20260510095550 23 159 0.0 1.6 0.00 0.00 0.00 99 1009.2
20260510095049 23 168 1.6 1.6 0.00 0.00 0.00 99 1009.2
20260510094544 23 177 0.0 1.6 0.00 0.00 0.00 99 1008.9
20260510094040 23 185 1.6 1.6 0.00 0.00 0.00 99 1009.1
20260510093536 23 171 0.0 0.0 0.00 0.00 0.00 99 1009.1
20260510093033 23 156 0.0 0.0 0.00 0.00 0.00 99 1009.2
20260510092530 23 183 0.0 0.0 0.00 0.00 0.00 99 1009.3
20260510092030 23 167 0.0 1.6 0.00 0.00 0.00 99 1009.2
20260510091527 23 178 1.6 1.6 0.00 0.00 0.00 99 1009.2
20260510091022 23 156 1.6 1.6 0.00 0.00 0.00 99 1009.2
20260510090520 23 162 1.6 1.6 0.00 0.00 0.00 99 1009.3
20260510090015 23 185 1.6 3.2 0.00 0.00 0.00 99 1009.1
20260510085510 23 181 1.6 3.2 0.00 0.00 0.00 99 1009.0
20260510085006 23 191 1.6 1.6 0.00 0.00 0.00 99 1009.0
20260510084503 23 182 1.6 1.6 0.00 0.00 0.00 99 1009.0
20260510084000 23 172 3.2 3.2 0.00 0.00 0.00 99 1009.1
20260510083456 23 190 4.8 4.8 0.00 0.00 0.00 99 1009.1
20260510082951 23 178 1.6 1.6 0.00 0.00 0.00 99 1009.0
20260510082450 23 166 1.6 3.2 0.00 0.00 0.00 99 1009.0
20260510081949 23 139 3.2 3.2 0.00 0.00 0.00 99 1008.9
20260510081445 23 180 0.0 1.6 0.00 0.00 0.00 99 1008.9
20260510080941 23 187 1.6 1.6 0.00 0.00 0.00 99 1009.0
20260510080440 23 172 1.6 3.2 0.00 0.00 0.00 99 1009.2
20260510075937 23 177 1.6 3.2 0.00 0.00 0.00 99 1009.0
20260510075435 23 179 1.6 1.6 0.00 0.00 0.00 99 1008.9
20260510074931 23 194 4.8 8.0 0.00 0.00 0.00 99 1008.9
20260510074429 23 148 4.8 8.0 0.00 0.00 0.00 99 1008.9
20260510073925 23 173 1.6 3.2 0.00 0.00 0.00 99 1009.0
20260510073420 23 155 0.0 1.6 0.00 0.00 0.00 99 1008.9
20260510072917 23 166 1.6 1.6 0.00 0.00 0.00 99 1008.9
20260510072414 23 103 1.6 1.6 0.00 0.00 0.00 99 1008.8
20260510071909 23 182 3.2 3.2 0.00 0.00 0.00 99 1008.9
20260510071406 23 156 3.2 3.2 0.00 0.00 0.00 99 1008.9
20260510070905 23 172 4.8 8.0 0.00 0.00 0.00 99 1008.9
20260510070401 23 173 3.2 3.2 0.00 0.00 0.00 99 1009.0
20260510065856 23 168 1.6 3.2 0.00 0.00 0.00 99 1008.8
20260510065353 23 169 4.8 8.0 0.00 0.00 0.00 99 1009.2
20260510064850 23 188 4.8 4.8 0.00 0.00 0.00 99 1009.2
20260510064348 23 159 3.2 4.8 0.00 0.00 0.00 99 1009.1
20260510063844 23 164 3.2 3.2 0.00 0.00 0.00 99 1009.3
20260510063340 23 192 3.2 3.2 0.00 0.00 0.00 99 1009.3
20260510062837 23 169 3.2 3.2 0.00 0.00 0.00 99 1009.5
20260510062332 23 195 4.8 8.0 0.00 0.00 0.00 99 1009.5
20260510061828 23 160 1.6 1.6 0.00 0.00 0.00 99 1009.5
20260510061325 23 154 0.0 1.6 0.00 0.00 0.00 98 1009.7
20260510060821 23 188 4.8 4.8 0.00 0.00 0.00 98 1009.6
20260510060318 23 158 1.6 3.2 0.00 0.00 0.00 98 1009.5
20260510055815 23 177 1.6 1.6 0.00 0.00 0.00 98 1009.6
20260510055314 23 178 4.8 4.8 0.00 0.00 0.00 97 1009.4
20260510054813 23 158 1.6 1.6 0.00 0.00 0.00 97 1009.6
20260510054309 23 169 1.6 1.6 0.00 0.00 0.00 97 1009.6
20260510053809 23 156 4.8 4.8 0.00 0.00 0.00 96 1009.7
20260510053300 23 154 4.8 4.8 0.00 0.00 0.00 96 1009.7
20260510052756 23 122 3.2 3.2 0.00 0.00 0.00 96 1009.8
20260510052252 24 160 1.6 1.6 0.00 0.00 0.00 96 1009.9
20260510051748 24 151 4.8 8.0 0.00 0.00 0.00 96 1010.0
20260510051245 24 169 3.2 3.2 0.00 0.00 0.00 96 1009.7
20260510050742 24 128 3.2 4.8 0.00 0.00 0.00 97 1009.9
20260510050239 24 186 6.4 9.7 0.00 0.00 0.00 97 1009.9
20260510045736 24 170 3.2 4.8 0.00 0.00 0.00 97 1010.1
20260510045232 24 189 8.0 11.3 0.00 0.00 0.00 97 1010.1
20260510044729 24 149 4.8 4.8 0.00 0.00 0.00 98 1010.0
20260510044227 24 159 4.8 4.8 0.00 0.00 0.00 98 1010.0
20260510043721 24 96 9.7 12.9 0.00 0.00 0.00 98 1010.2
20260510043219 24 122 0.0 1.6 0.00 0.00 0.00 98 1010.4
20260510042716 24 108 0.0 0.0 0.00 0.00 0.00 98 1010.3
20260510042212 24 143 1.6 1.6 0.00 0.00 0.00 98 1010.1
20260510041709 24 148 4.8 8.0 0.00 0.00 0.00 98 1010.2
20260510041206 24 141 4.8 8.0 0.00 0.00 0.00 98 1010.3
20260510040703 24 150 4.8 4.8 0.00 0.00 0.00 98 1010.4
20260510040200 24 125 3.2 3.2 0.00 0.00 0.00 98 1010.2
20260510035655 24 133 6.4 9.7 0.00 0.00 0.00 98 1010.0
20260510035151 24 169 3.2 4.8 0.00 0.00 0.00 98 1010.0
20260510034647 24 129 4.8 4.8 0.00 0.00 0.00 98 1010.1
20260510034145 24 171 3.2 3.2 0.00 0.00 0.00 98 1010.1
20260510033641 25 147 1.6 1.6 0.00 0.00 0.00 98 1010.1
20260510033139 25 57 1.6 1.6 0.00 0.00 0.00 98 1010.0
20260510032635 24 144 1.6 1.6 0.00 0.00 0.00 98 1010.2
20260510032131 24 145 0.0 0.0 0.00 0.00 0.00 97 1010.2
20260510031626 24 131 1.6 3.2 0.00 0.00 0.00 97 1010.0
20260510031123 24 144 1.6 3.2 0.00 0.00 0.00 97 1010.0
20260510030617 23 130 0.0 1.6 0.00 0.00 0.00 97 1009.9
20260510030115 23 158 0.0 0.0 0.00 0.00 0.00 96 1009.7
20260510025612 23 147 0.0 0.0 0.00 0.00 0.00 96 1009.6
20260510025109 24 157 1.6 1.6 0.00 0.00 0.00 96 1009.6
20260510024606 24 151 1.6 1.6 0.00 0.00 0.00 96 1009.4
20260510024102 24 166 0.0 1.6 0.00 0.00 0.00 96 1009.5
20260510023559 24 154 0.0 0.0 0.00 0.00 0.00 96 1009.4
20260510023056 24 163 0.0 1.6 0.00 0.00 0.00 96 1009.6
20260510022555 24 117 1.6 1.6 0.00 0.00 0.00 96 1009.4
20260510022050 24 140 1.6 1.6 0.00 0.00 0.00 96 1009.0
20260510021546 24 55 1.6 1.6 0.00 0.00 0.00 96 1008.8
20260510021044 24 137 3.2 3.2 0.00 0.00 0.00 96 1008.7
20260510020538 24 162 1.6 3.2 0.00 0.00 0.00 96 1008.4
20260510020034 24 167 1.6 1.6 0.00 0.00 0.00 96 1008.4
20260510015530 24 150 0.0 0.0 0.00 0.00 0.00 96 1008.4
20260510015026 24 164 1.6 3.2 0.00 0.00 0.00 96 1008.2
20260510014523 25 164 1.6 1.6 0.00 0.00 0.00 95 1008.0
20260510014020 24 146 0.0 0.0 0.00 0.00 0.00 95 1008.1
20260510013514 25 148 0.0 0.0 0.00 0.00 0.00 94 1008.1
20260510013010 25 136 0.0 1.6 0.00 0.00 0.00 94 1007.9
20260510012505 25 144 0.0 0.0 0.00 0.00 0.00 94 1007.7
20260510012001 25 124 0.0 0.0 0.00 0.00 0.00 94 1007.3
20260510011455 25 149 3.2 3.2 0.00 0.00 0.00 94 1007.1
20260510010951 25 143 3.2 3.2 0.00 0.00 0.00 93 1006.9
20260510010449 25 164 1.6 1.6 0.00 0.00 0.00 93 1007.2
20260510005946 25 159 1.6 1.6 0.00 0.00 0.00 93 1007.3
20260510005441 25 128 1.6 1.6 0.00 0.00 0.00 93 1007.3
20260510004939 25 182 3.2 4.8 0.00 0.00 0.00 93 1007.3
20260510004436 25 184 1.6 3.2 0.00 0.00 0.00 92 1007.3
20260510003934 26 160 1.6 3.2 0.00 0.00 0.00 91 1007.4
20260510003431 26 149 3.2 3.2 0.00 0.00 0.00 90 1007.5
20260510002930 26 150 3.2 3.2 0.00 0.00 0.00 90 1007.2
20260510002427 26 151 6.4 9.7 0.00 0.00 0.00 89 1007.1
20260510001924 26 176 1.6 1.6 0.00 0.00 0.00 89 1007.4
20260510001421 26 169 1.6 3.2 0.00 0.00 0.00 88 1007.1
20260510000919 27 125 4.8 8.0 0.00 0.00 0.00 86 1007.0
20260510000415 27 156 1.6 3.2 0.00 0.00 0.00 86 1007.0
20260509235912 27 137 1.6 3.2 0.00 0.00 0.00 84 1007.0
20260509235409 28 96 4.8 8.0 0.00 0.00 0.00 81 1006.8
20260509234904 28 144 3.2 3.2 0.00 0.00 0.00 78 1006.7
20260509234402 28 151 3.2 3.2 0.00 0.00 0.00 75 1006.5
20260509233859 28 166 3.2 3.2 0.00 0.00 0.00 73 1006.7
20260509233357 28 141 6.4 9.7 0.00 0.00 0.00 72 1006.7
20260509232852 29 167 3.2 4.8 0.00 0.00 0.00 74 1006.7
20260509232351 29 114 3.2 4.8 0.00 0.00 0.00 73 1006.6
20260509231846 29 174 3.2 3.2 0.00 0.00 0.00 74 1006.7
20260509231343 30 101 4.8 4.8 0.00 0.00 0.00 73 1006.7
20260509230841 30 152 1.6 1.6 0.00 0.00 0.00 73 1006.4
20260509230338 30 188 4.8 8.0 0.00 0.00 0.00 72 1006.6
20260509225833 30 134 3.2 3.2 0.00 0.00 0.00 73 1006.5
20260509225330 30 140 4.8 8.0 0.00 0.00 0.00 73 1006.6
20260509224826 30 137 3.2 4.8 0.00 0.00 0.00 74 1006.3
20260509224322 30 164 1.6 3.2 0.00 0.00 0.00 73 1006.5
20260509223819 31 148 6.4 8.0 0.00 0.00 0.00 68 1006.4
20260509223316 31 201 3.2 3.2 0.00 0.00 0.00 65 1006.3
20260509222813 31 193 4.8 4.8 0.00 0.00 0.00 67 1006.2
20260509222308 31 166 4.8 4.8 0.00 0.00 0.00 71 1006.3
20260509221804 31 162 3.2 3.2 0.00 0.00 0.00 69 1006.3
20260509221302 31 194 1.6 1.6 0.00 0.00 0.00 65 1006.0
20260509220756 31 168 3.2 4.8 0.00 0.00 0.00 60 1006.3
20260509220253 32 158 1.6 3.2 0.00 0.00 0.00 61 1006.0
20260509215748 32 202 4.8 4.8 0.00 0.00 0.00 57 1005.8
20260509215245 32 172 1.6 3.2 0.00 0.00 0.00 58 1006.0
20260509214742 32 39 0.0 1.6 0.00 0.00 0.00 59 1006.0
20260509214239 32 97 3.2 3.2 0.00 0.00 0.00 62 1006.0
20260509213736 32 183 1.6 3.2 0.00 0.00 0.00 67 1006.0
20260509213232 32 165 6.4 8.0 0.00 0.00 0.00 63 1006.0
20260509212730 32 196 1.6 1.6 0.00 0.00 0.00 66 1006.2
20260509212227 32 207 0.0 1.6 0.00 0.00 0.00 67 1006.1
20260509211722 31 169 4.8 4.8 0.00 0.00 0.00 69 1006.1
20260509211219 32 174 1.6 1.6 0.00 0.00 0.00 69 1005.9
20260509210715 32 152 1.6 1.6 0.00 0.00 0.00 68 1006.0
20260509210213 32 182 0.0 0.0 0.00 0.00 0.00 66 1006.0
20260509205713 32 217 1.6 1.6 0.00 0.00 0.00 68 1006.0
20260509205212 32 27 0.0 0.0 0.00 0.00 0.00 69 1006.2
20260509204709 32 239 0.0 0.0 0.00 0.00 0.00 68 1006.2
20260509204205 32 311 1.6 1.6 0.00 0.00 0.00 63 1006.2
20260509203701 31 331 0.0 0.0 0.00 0.00 0.00 64 1006.2
20260509203200 32 304 0.0 0.0 0.00 0.00 0.00 66 1006.4
20260509202655 32 221 0.0 1.6 0.00 0.00 0.00 66 1006.2
20260509202150 32 226 1.6 3.2 0.00 0.00 0.00 66 1006.5
20260509201646 31 224 0.0 0.0 0.00 0.00 0.00 67 1006.5
20260509201143 32 220 1.6 3.2 0.00 0.00 0.00 67 1006.5
20260509200639 32 197 1.6 1.6 0.00 0.00 0.00 67 1006.3
20260509200134 32 193 0.0 1.6 0.00 0.00 0.00 66 1006.6
20260509195630 32 220 0.0 1.6 0.00 0.00 0.00 67 1006.8
20260509195125 32 196 1.6 1.6 0.00 0.00 0.00 65 1006.7
20260509194625 32 156 3.2 3.2 0.00 0.00 0.00 65 1006.7
20260509194122 32 221 0.0 1.6 0.00 0.00 0.00 64 1007.0
20260509193618 32 260 1.6 3.2 0.00 0.00 0.00 67 1006.8
20260509193114 32 320 0.0 1.6 0.00 0.00 0.00 67 1006.9
20260509192611 32 153 0.0 0.0 0.00 0.00 0.00 70 1006.9
20260509192106 31 235 0.0 0.0 0.00 0.00 0.00 68 1006.8
20260509191601 31 223 3.2 3.2 0.00 0.00 0.00 69 1007.2
20260509191057 31 110 4.8 4.8 0.00 0.00 0.00 69 1006.9
20260509190554 31 269 1.6 1.6 0.00 0.00 0.00 73 1007.1
20260509190052 30 172 1.6 1.6 0.00 0.00 0.00 74 1007.1
20260509185549 31 2 4.8 9.7 0.00 0.00 0.00 76 1007.0
20260509185045 31 243 0.0 0.0 0.00 0.00 0.00 68 1007.1
20260509184543 29 234 0.0 0.0 0.00 0.00 0.00 70 1007.1
20260509184039 29 302 1.6 3.2 0.00 0.00 0.00 74 1007.3
20260509183535 30 323 3.2 4.8 0.00 0.00 0.00 77 1007.4
20260509183031 29 299 1.6 1.6 0.00 0.00 0.00 79 1007.4
20260509182527 28 102 1.6 3.2 0.00 0.00 0.00 81 1007.6
20260509182024 29 34 3.2 4.8 0.00 0.00 0.00 79 1007.6
20260509181523 29 26 3.2 4.8 0.00 0.00 0.00 80 1007.6
20260509181020 28 249 6.4 8.0 0.00 0.00 0.00 79 1007.7
20260509180515 27 321 3.2 3.2 0.00 0.00 0.00 82 1007.7
20260509180013 28 3 3.2 4.8 0.00 0.00 0.00 83 1007.8
20260509175508 28 9 0.0 1.6 0.00 0.00 0.00 84 1007.8
20260509175005 28 277 0.0 1.6 0.00 0.00 0.00 83 1008.1
20260509174502 27 314 0.0 0.0 0.00 0.00 0.00 85 1008.3
20260509173956 27 294 1.6 1.6 0.00 0.00 0.00 85 1008.4
20260509173451 28 291 0.0 1.6 0.00 0.00 0.00 87 1008.4
20260509172948 27 299 0.0 0.0 0.00 0.00 0.00 86 1008.5
20260509172445 27 247 1.6 3.2 0.00 0.00 0.00 86 1008.6
20260509171940 27 14 1.6 1.6 0.00 0.00 0.00 87 1008.3
20260509171436 27 230 4.8 4.8 0.00 0.00 0.00 87 1008.5
20260509170933 27 215 3.2 3.2 0.00 0.00 0.00 88 1008.2
20260509170429 27 176 4.8 4.8 0.00 0.00 0.00 88 1008.4
20260509165924 27 197 3.2 3.2 0.00 0.00 0.00 89 1008.5
20260509165419 27 245 3.2 4.8 0.00 0.00 0.00 89 1008.5
20260509164914 27 162 4.8 4.8 0.00 0.00 0.00 89 1008.4
20260509164411 27 170 1.6 3.2 0.00 0.00 0.00 90 1008.2
20260509163907 27 229 0.0 0.0 0.00 0.00 0.00 90 1008.6
20260509163404 27 164 3.2 3.2 0.00 0.00 0.00 91 1008.7
20260509162903 27 197 1.6 3.2 0.00 0.00 0.00 91 1008.7
20260509162402 27 218 1.6 1.6 0.00 0.00 0.00 92 1008.7
20260509161858 26 179 4.8 4.8 0.00 0.00 0.00 94 1008.2
20260509161354 26 156 3.2 3.2 0.00 0.00 0.00 95 1008.5
20260509160850 25 182 3.2 4.8 0.00 0.00 0.00 97 1008.5
20260509160346 25 236 3.2 4.8 0.00 0.00 0.00 98 1008.2
20260509155841 25 207 3.2 3.2 0.00 0.00 0.00 99 1008.3
20260509155338 25 176 6.4 8.0 0.00 0.00 0.00 99 1008.3
20260509154834 25 202 0.0 0.0 0.00 0.00 0.00 99 1008.7
20260509154331 25 182 0.0 0.0 0.00 0.00 0.00 99 1008.8
20260509153828 25 304 0.0 0.0 0.00 0.00 0.00 99 1008.7
20260509153324 25 282 0.0 0.0 0.00 0.00 0.00 99 1008.5
20260509152822 25 244 0.0 1.6 0.00 0.00 0.00 99 1008.7
20260509152317 25 204 0.0 1.6 0.00 0.00 0.00 99 1008.7
20260509151815 25 226 1.6 3.2 0.00 0.00 0.00 99 1008.5
20260509151311 24 157 1.6 3.2 0.00 0.00 0.00 99 1007.9
20260509150810 24 129 1.6 1.6 0.00 0.00 0.00 99 1007.7
20260509150307 24 142 3.2 3.2 0.00 0.00 0.00 99 1008.3
20260509145804 24 172 0.0 0.0 0.00 0.00 0.00 99 1008.6
20260509145306 24 178 0.0 0.0 0.00 0.00 0.00 99 1008.8
20260509144800 24 203 0.0 0.0 0.00 0.00 0.00 99 1008.9
20260509144257 24 198 0.0 0.0 0.00 0.00 0.00 99 1008.6
20260509143754 24 231 0.0 0.0 0.00 0.00 0.00 99 1008.6
20260509143252 24 230 1.6 1.6 0.00 0.00 0.00 99 1008.8
20260509142747 24 221 0.0 0.0 0.00 0.00 0.00 99 1008.7
20260509142244 24 179 0.0 0.0 0.00 0.00 0.00 99 1008.4
20260509141739 24 206 0.0 0.0 0.00 0.00 0.00 99 1008.6
20260509141237 24 217 0.0 1.6 0.00 0.00 0.00 99 1008.8
20260509140733 24 285 1.6 1.6 0.00 0.00 0.00 99 1008.9
20260509140231 24 224 0.0 0.0 0.00 0.00 0.00 99 1009.0
20260509135728 24 193 0.0 0.0 0.00 0.00 0.00 99 1008.5
20260509135226 24 188 0.0 0.0 0.00 0.00 0.00 99 1008.4
20260509134722 24 186 0.0 0.0 0.00 0.00 0.00 99 1008.3
20260509134220 24 208 0.0 0.0 0.00 0.00 0.00 99 1008.3
20260509133717 24 208 0.0 0.0 0.00 0.00 0.00 99 1008.5
20260509133214 24 204 0.0 0.0 0.00 0.00 0.00 99 1008.6
20260509132713 24 123 0.0 1.6 0.00 0.00 0.00 99 1008.3
20260509132211 24 212 0.0 1.6 0.00 0.00 0.00 99 1008.1
20260509131707 24 202 1.6 1.6 0.00 0.00 0.00 99 1008.1
20260509131204 23 211 1.6 1.6 0.00 0.00 0.00 99 1008.3
20260509130659 23 230 0.0 0.0 0.00 0.00 0.00 99 1008.7
20260509130155 23 276 0.0 0.0 0.00 0.00 0.00 99 1008.8
20260509125652 23 336 0.0 1.6 0.00 0.00 0.00 99 1008.8
20260509125149 23 257 0.0 0.0 0.00 0.00 0.00 99 1008.6
20260509124646 23 216 0.0 0.0 0.00 0.00 0.00 99 1008.4
20260509124142 23 235 0.0 0.0 0.00 0.00 0.00 99 1008.4
20260509123640 23 205 0.0 0.0 0.00 0.00 0.00 99 1008.5
20260509123137 23 199 0.0 0.0 0.00 0.00 0.00 99 1008.3
20260509122633 23 201 0.0 0.0 0.00 0.00 0.00 99 1008.5
20260509122130 23 279 0.0 0.0 0.00 0.00 0.00 99 1008.6
20260509121626 23 325 0.0 0.0 0.00 0.00 0.00 99 1008.6
20260509121125 23 215 0.0 0.0 0.00 0.00 0.00 99 1008.6
20260509120622 23 317 0.0 0.0 0.00 0.00 0.00 99 1008.5
20260509120120 23 328 0.0 0.0 0.00 0.00 0.00 99 1008.6
20260509115617 23 329 0.0 0.0 0.00 0.00 0.00 99 1008.6
20260509115115 23 336 0.0 1.6 0.00 0.00 0.00 99 1008.4
20260509114613 23 346 0.0 0.0 0.00 0.00 0.00 99 1008.5
20260509114112 23 14 1.6 1.6 0.00 0.00 0.00 99 1008.3
20260509113609 23 302 0.0 0.0 0.00 0.00 0.00 99 1008.5
20260509113107 23 272 0.0 0.0 0.00 0.00 0.00 99 1008.3
20260509112603 23 0 0.0 1.6 0.00 0.00 0.00 99 1008.1
20260509112100 23 340 0.0 0.0 0.00 0.00 0.00 99 1008.0
20260509111557 23 248 0.0 0.0 0.00 0.00 0.00 99 1008.0
20260509111054 23 235 0.0 0.0 0.00 0.00 0.00 99 1008.2
20260509110551 23 234 0.0 0.0 0.00 0.00 0.00 99 1008.2
20260509110048 23 297 0.0 0.0 0.00 0.00 0.00 99 1008.1
20260509105546 23 297 0.0 0.0 0.00 0.00 0.00 99 1007.9
20260509105044 23 338 0.0 0.0 0.00 0.00 0.00 99 1007.8
20260509104540 23 323 0.0 1.6 0.00 0.00 0.00 99 1007.5